TimeCST,TemperatureF,Dew PointF,Humidity,Sea Level PressureIn,VisibilityMPH,Wind Direction,Wind SpeedMPH,Gust SpeedMPH,PrecipitationIn,Events,Conditions,WindDirDegrees,DateUTC
12:53 AM,28.9,24.1,82,30.24,10.0,NNE,5.8,-,N/A,,Clear,20,2013-01-15 06:53:00
1:53 AM,28.9,24.1,82,30.22,10.0,NNE,5.8,-,N/A,,Clear,30,2013-01-15 07:53:00
2:53 AM,28.9,23.0,78,30.21,10.0,NE,10.4,17.3,N/A,,Clear,40,2013-01-15 08:53:00
3:53 AM,28.9,24.1,82,30.18,10.0,NNE,10.4,-,N/A,,Clear,30,2013-01-15 09:53:00
4:53 AM,28.9,24.1,82,30.18,10.0,NE,9.2,-,N/A,,Overcast,40,2013-01-15 10:53:00
5:24 AM,28.4,24.8,86,30.19,10.0,NNE,5.8,-,N/A,,Mostly Cloudy,20,2013-01-15 11:24:00
6:53 AM,30.0,24.1,79,30.20,10.0,NNE,8.1,-,N/A,,Overcast,20,2013-01-15 12:53:00
7:46 AM,30.2,24.8,80,30.19,10.0,Variable,5.8,16.1,N/A,,Overcast,0,2013-01-15 13:46:00
7:53 AM,30.0,24.1,79,30.19,10.0,NNE,6.9,-,N/A,,Overcast,30,2013-01-15 13:53:00
8:07 AM,30.2,24.8,80,30.19,10.0,NNE,6.9,17.3,N/A,,Overcast,20,2013-01-15 14:07:00
8:53 AM,30.0,24.1,79,30.17,10.0,NE,8.1,16.1,N/A,,Overcast,40,2013-01-15 14:53:00
9:53 AM,30.0,25.0,82,30.18,7.0,North,5.8,-,0.01,Rain,Light Freezing Rain,10,2013-01-15 15:53:00
10:03 AM,30.2,24.8,80,30.19,7.0,Variable,4.6,-,0.00,Rain,Light Freezing Rain,0,2013-01-15 16:03:00
10:45 AM,30.2,26.6,86,30.22,3.0,NNW,6.9,17.3,0.05,Rain,Light Freezing Rain,340,2013-01-15 16:45:00
10:53 AM,30.0,26.1,85,30.20,2.0,Variable,6.9,16.1,0.06,Rain,Light Freezing Rain,0,2013-01-15 16:53:00
11:09 AM,30.2,26.6,86,30.19,2.0,North,9.2,-,0.03,,Overcast,350,2013-01-15 17:09:00
11:17 AM,28.4,26.6,93,30.19,1.8,Variable,6.9,-,0.03,Rain,Light Freezing Rain,0,2013-01-15 17:17:00
11:28 AM,28.4,26.6,93,30.17,2.5,Variable,6.9,-,0.03,Rain,Light Freezing Rain,0,2013-01-15 17:28:00
11:35 AM,30.2,26.6,86,30.16,3.0,NNE,9.2,-,0.03,Rain,Light Freezing Rain,20,2013-01-15 17:35:00
11:53 AM,30.0,26.1,85,30.15,3.0,North,9.2,17.3,0.03,Rain,Light Freezing Rain,10,2013-01-15 17:53:00
12:28 PM,30.2,26.6,86,30.15,2.5,Variable,4.6,-,0.01,Rain,Light Freezing Rain,0,2013-01-15 18:28:00
12:37 PM,30.2,28.4,93,30.16,1.5,NNW,4.6,-,0.03,Rain,Light Freezing Rain,340,2013-01-15 18:37:00
12:53 PM,30.0,27.0,88,30.16,1.8,North,5.8,-,0.05,Rain,Light Freezing Rain,360,2013-01-15 18:53:00
1:01 PM,30.2,26.6,86,30.14,2.5,North,9.2,-,0.00,Rain,Light Freezing Rain,10,2013-01-15 19:01:00
1:11 PM,30.2,26.6,86,30.14,4.0,North,10.4,17.3,0.00,Rain,Light Freezing Rain,360,2013-01-15 19:11:00
1:34 PM,30.2,26.6,86,30.11,2.5,NNE,10.4,17.3,0.03,Rain,Light Freezing Rain,30,2013-01-15 19:34:00
1:43 PM,30.2,26.6,86,30.12,5.0,Variable,5.8,-,0.03,Rain,Light Freezing Rain,0,2013-01-15 19:43:00
1:53 PM,30.0,27.0,88,30.12,7.0,Variable,5.8,-,0.04,Rain,Light Freezing Rain,0,2013-01-15 19:53:00
2:41 PM,30.2,26.6,86,30.09,9.0,NNE,6.9,-,0.01,Rain,Light Freezing Rain,30,2013-01-15 20:41:00
2:53 PM,30.0,27.0,88,30.12,9.0,North,4.6,-,0.02,Rain,Light Freezing Rain,350,2013-01-15 20:53:00
3:18 PM,30.2,26.6,86,30.11,10.0,Variable,6.9,-,0.00,,Overcast,0,2013-01-15 21:18:00
3:29 PM,30.2,26.6,86,30.10,10.0,NNE,4.6,-,0.00,,Overcast,20,2013-01-15 21:29:00
3:53 PM,30.0,27.0,88,30.09,10.0,Variable,5.8,-,0.00,,Overcast,0,2013-01-15 21:53:00
4:53 PM,30.0,27.0,88,30.12,9.0,Calm,Calm,-,N/A,,Overcast,0,2013-01-15 22:53:00
5:53 PM,30.0,27.0,88,30.12,10.0,NNE,6.9,-,N/A,,Overcast,30,2013-01-15 23:53:00
6:05 PM,30.2,26.6,86,30.11,10.0,North,5.8,-,N/A,,Overcast,360,2013-01-16 00:05:00
6:53 PM,30.0,27.0,88,30.14,9.0,NNE,3.5,-,N/A,,Overcast,20,2013-01-16 00:53:00
7:30 PM,30.2,26.6,86,30.13,4.0,Variable,3.5,-,N/A,,Overcast,0,2013-01-16 01:30:00
7:48 PM,30.2,26.6,86,30.13,4.0,North,5.8,-,N/A,,Overcast,360,2013-01-16 01:48:00
7:53 PM,30.0,28.0,92,30.14,4.0,Variable,4.6,-,N/A,,Overcast,0,2013-01-16 01:53:00
8:53 PM,30.0,28.0,92,30.13,4.0,Calm,Calm,-,N/A,,Overcast,0,2013-01-16 02:53:00
9:14 PM,30.2,28.4,93,30.13,3.0,Calm,Calm,-,N/A,,Overcast,0,2013-01-16 03:14:00
9:53 PM,30.9,28.9,92,30.13,5.0,North,4.6,-,N/A,,Overcast,10,2013-01-16 03:53:00
10:53 PM,30.9,28.9,92,30.15,7.0,NNW,5.8,-,N/A,,Overcast,340,2013-01-16 04:53:00